Year,Month,Day,Hour,Minute,Value (Times are PST for temperature in C)
2014,08,23,00,00,14.50
2014,08,23,00,01,14.40
2014,08,23,00,02,14.40
2014,08,23,00,03,14.40
2014,08,23,00,04,14.30
2014,08,23,00,05,14.30
2014,08,23,00,06,14.30
2014,08,23,00,07,14.20
2014,08,23,00,08,14.20
2014,08,23,00,09,14.20
2014,08,23,00,10,14.10
2014,08,23,00,11,14.10
2014,08,23,00,12,14.10
2014,08,23,00,13,14.10
2014,08,23,00,14,14.10
2014,08,23,00,15,14.10
2014,08,23,00,16,14.10
2014,08,23,00,17,14.10
2014,08,23,00,18,14.10
2014,08,23,00,19,14.20
2014,08,23,00,20,14.20
2014,08,23,00,21,14.20
2014,08,23,00,22,14.20
2014,08,23,00,23,14.20
2014,08,23,00,24,14.20
2014,08,23,00,25,14.20
2014,08,23,00,26,14.20
2014,08,23,00,27,14.20
2014,08,23,00,28,14.20
2014,08,23,00,29,14.20
2014,08,23,00,30,14.20
2014,08,23,00,31,14.20
2014,08,23,00,32,14.10
2014,08,23,00,33,14.00
2014,08,23,00,34,14.00
2014,08,23,00,35,13.90
2014,08,23,00,36,13.80
2014,08,23,00,37,13.80
2014,08,23,00,38,13.70
2014,08,23,00,39,13.70
2014,08,23,00,40,13.70
2014,08,23,00,41,13.70
2014,08,23,00,42,13.70
2014,08,23,00,43,13.70
2014,08,23,00,44,13.70
2014,08,23,00,45,13.70
2014,08,23,00,46,13.70
2014,08,23,00,47,13.70
2014,08,23,00,48,13.80
2014,08,23,00,49,13.80
2014,08,23,00,50,13.80
2014,08,23,00,51,13.80
2014,08,23,00,52,13.80
2014,08,23,00,53,13.80
2014,08,23,00,54,13.80
2014,08,23,00,55,13.80
2014,08,23,00,56,13.80
2014,08,23,00,57,13.80
2014,08,23,00,58,13.80
2014,08,23,00,59,13.80
2014,08,23,01,00,13.70
2014,08,23,01,01,13.70
2014,08,23,01,02,13.70
2014,08,23,01,03,13.60
2014,08,23,01,04,13.60
2014,08,23,01,05,13.60
2014,08,23,01,06,13.50
2014,08,23,01,07,13.50
2014,08,23,01,08,13.50
2014,08,23,01,09,13.50
2014,08,23,01,10,13.50
2014,08,23,01,11,13.50
2014,08,23,01,12,13.60
2014,08,23,01,13,13.60
2014,08,23,01,14,13.60
2014,08,23,01,15,13.60
2014,08,23,01,16,13.60
2014,08,23,01,17,13.60
2014,08,23,01,18,13.60
2014,08,23,01,19,13.60
2014,08,23,01,20,13.60
2014,08,23,01,21,13.60
2014,08,23,01,22,13.60
2014,08,23,01,23,13.60
2014,08,23,01,24,13.60
2014,08,23,01,25,13.60
2014,08,23,01,26,13.50
2014,08,23,01,27,13.50
2014,08,23,01,28,13.50
2014,08,23,01,29,13.40
2014,08,23,01,30,13.40
2014,08,23,01,31,13.30
2014,08,23,01,32,13.30
2014,08,23,01,33,13.20
2014,08,23,01,34,13.20
2014,08,23,01,35,13.20
2014,08,23,01,36,13.10
2014,08,23,01,37,13.10
2014,08,23,01,38,13.10
2014,08,23,01,39,13.10
2014,08,23,01,40,13.10
2014,08,23,01,41,13.10
2014,08,23,01,42,13.00
2014,08,23,01,43,13.00
2014,08,23,01,44,13.00
2014,08,23,01,45,12.90
2014,08,23,01,46,12.90
2014,08,23,01,47,12.90
2014,08,23,01,48,12.80
2014,08,23,01,49,12.80
2014,08,23,01,50,12.80
2014,08,23,01,51,12.80
2014,08,23,01,52,12.80
2014,08,23,01,53,12.80
2014,08,23,01,54,12.80
2014,08,23,01,55,12.80
2014,08,23,01,56,12.80
2014,08,23,01,57,12.80
2014,08,23,01,58,12.80
2014,08,23,01,59,12.80
2014,08,23,02,00,12.80
2014,08,23,02,01,12.80
2014,08,23,02,02,12.80
2014,08,23,02,03,12.90
2014,08,23,02,04,12.90
2014,08,23,02,05,12.80
2014,08,23,02,06,12.90
2014,08,23,02,07,12.80
2014,08,23,02,08,12.80
2014,08,23,02,09,12.80
2014,08,23,02,10,12.80
2014,08,23,02,11,12.80
2014,08,23,02,12,12.80
2014,08,23,02,13,12.80
2014,08,23,02,14,12.80
2014,08,23,02,15,12.80
2014,08,23,02,16,12.80
2014,08,23,02,17,12.80
2014,08,23,02,18,12.80
2014,08,23,02,19,12.70
2014,08,23,02,20,12.70
2014,08,23,02,21,12.70
2014,08,23,02,22,12.70
2014,08,23,02,23,12.70
2014,08,23,02,24,12.70
2014,08,23,02,25,12.70
2014,08,23,02,26,12.70
2014,08,23,02,27,12.60
2014,08,23,02,28,12.60
2014,08,23,02,29,12.60
2014,08,23,02,30,12.60
2014,08,23,02,31,12.60
2014,08,23,02,32,12.60
2014,08,23,02,33,12.60
2014,08,23,02,34,12.60
2014,08,23,02,35,12.60
2014,08,23,02,36,12.60
2014,08,23,02,37,12.60
2014,08,23,02,38,12.60
2014,08,23,02,39,12.60
2014,08,23,02,40,12.60
2014,08,23,02,41,12.70
2014,08,23,02,42,12.60
2014,08,23,02,43,12.60
2014,08,23,02,44,12.50
2014,08,23,02,45,12.40
2014,08,23,02,46,12.40
2014,08,23,02,47,12.30
2014,08,23,02,48,12.20
2014,08,23,02,49,12.20
2014,08,23,02,50,12.20
2014,08,23,02,51,12.10
2014,08,23,02,52,12.10
2014,08,23,02,53,12.10
2014,08,23,02,54,12.10
2014,08,23,02,55,12.10
2014,08,23,02,56,12.00
2014,08,23,02,57,12.00
2014,08,23,02,58,12.00
2014,08,23,02,59,12.00
2014,08,23,03,00,11.90
2014,08,23,03,01,11.90
2014,08,23,03,02,11.90
2014,08,23,03,03,11.90
2014,08,23,03,04,11.90
2014,08,23,03,05,11.90
2014,08,23,03,06,11.90
2014,08,23,03,07,11.90
2014,08,23,03,08,11.90
2014,08,23,03,09,12.00
2014,08,23,03,10,12.00
2014,08,23,03,11,12.00
2014,08,23,03,12,12.00
2014,08,23,03,13,12.00
2014,08,23,03,14,12.00
2014,08,23,03,15,12.00
2014,08,23,03,16,12.10
2014,08,23,03,17,12.10
2014,08,23,03,18,12.10
2014,08,23,03,19,12.10
2014,08,23,03,20,12.10
2014,08,23,03,21,12.10
2014,08,23,03,22,12.10
2014,08,23,03,23,12.10
2014,08,23,03,24,12.10
2014,08,23,03,25,12.20
2014,08,23,03,26,12.20
2014,08,23,03,27,12.20
2014,08,23,03,28,12.20
2014,08,23,03,29,12.30
2014,08,23,03,30,12.30
2014,08,23,03,31,12.40
2014,08,23,03,32,12.40
2014,08,23,03,33,12.50
2014,08,23,03,34,12.60
2014,08,23,03,35,12.70
2014,08,23,03,36,12.80
2014,08,23,03,37,12.90
2014,08,23,03,38,12.90
2014,08,23,03,39,13.00
2014,08,23,03,40,13.10
2014,08,23,03,41,13.10
2014,08,23,03,42,13.20
2014,08,23,03,43,13.20
2014,08,23,03,44,13.10
2014,08,23,03,45,13.10
2014,08,23,03,46,13.10
2014,08,23,03,47,13.00
2014,08,23,03,48,12.90
2014,08,23,03,49,12.80
2014,08,23,03,50,12.70
2014,08,23,03,51,12.60
2014,08,23,03,52,12.50
2014,08,23,03,53,12.50
2014,08,23,03,54,12.40
2014,08,23,03,55,12.40
2014,08,23,03,56,12.30
2014,08,23,03,57,12.30
2014,08,23,03,58,12.30
2014,08,23,03,59,12.30
2014,08,23,04,00,12.30
2014,08,23,04,01,12.30
2014,08,23,04,02,12.30
2014,08,23,04,03,12.30
2014,08,23,04,04,12.30
2014,08,23,04,05,12.30
2014,08,23,04,06,12.30
2014,08,23,04,07,12.30
2014,08,23,04,08,12.30
2014,08,23,04,09,12.30
2014,08,23,04,10,12.30
2014,08,23,04,11,12.30
2014,08,23,04,12,12.30
2014,08,23,04,13,12.30
2014,08,23,04,14,12.30
2014,08,23,04,15,12.30
2014,08,23,04,16,12.40
2014,08,23,04,17,12.40
2014,08,23,04,18,12.50
2014,08,23,04,19,12.50
2014,08,23,04,20,12.60
2014,08,23,04,21,12.60
2014,08,23,04,22,12.60
2014,08,23,04,23,12.70
2014,08,23,04,24,12.70
2014,08,23,04,25,12.80
2014,08,23,04,26,12.90
2014,08,23,04,27,12.90
2014,08,23,04,28,13.00
2014,08,23,04,29,13.00
2014,08,23,04,30,13.10
2014,08,23,04,31,13.20
2014,08,23,04,32,13.20
2014,08,23,04,33,13.30
2014,08,23,04,34,13.30
2014,08,23,04,35,13.30
2014,08,23,04,36,13.40
2014,08,23,04,37,13.50
2014,08,23,04,38,13.50
2014,08,23,04,39,13.60
2014,08,23,04,40,13.60
2014,08,23,04,41,13.70
2014,08,23,04,42,13.70
2014,08,23,04,43,13.80
2014,08,23,04,44,13.80
2014,08,23,04,45,13.80
2014,08,23,04,46,13.90
2014,08,23,04,47,13.90
2014,08,23,04,48,13.90
2014,08,23,04,49,13.90
2014,08,23,04,50,14.00
2014,08,23,04,51,14.00
2014,08,23,04,52,14.00
2014,08,23,04,53,14.00
2014,08,23,04,54,14.10
2014,08,23,04,55,14.10
2014,08,23,04,56,14.10
2014,08,23,04,57,14.10
2014,08,23,04,58,14.10
2014,08,23,04,59,14.10
2014,08,23,05,00,14.10
2014,08,23,05,01,14.10
2014,08,23,05,02,14.10
2014,08,23,05,03,14.10
2014,08,23,05,04,14.10
2014,08,23,05,05,14.10
2014,08,23,05,06,14.00
2014,08,23,05,07,14.00
2014,08,23,05,08,13.90
2014,08,23,05,09,13.90
2014,08,23,05,10,13.90
2014,08,23,05,11,13.90
2014,08,23,05,12,13.90
2014,08,23,05,13,13.90
2014,08,23,05,14,13.90
2014,08,23,05,15,13.90
2014,08,23,05,16,13.90
2014,08,23,05,17,13.90
2014,08,23,05,18,13.80
2014,08,23,05,19,13.80
2014,08,23,05,20,13.80
2014,08,23,05,21,13.80
2014,08,23,05,22,13.80
2014,08,23,05,23,13.80
2014,08,23,05,24,13.80
2014,08,23,05,25,13.80
2014,08,23,05,26,13.80
2014,08,23,05,27,13.70
2014,08,23,05,28,13.70
2014,08,23,05,29,13.70
2014,08,23,05,30,13.70
2014,08,23,05,31,13.70
2014,08,23,05,32,13.70
2014,08,23,05,33,13.70
2014,08,23,05,34,13.70
2014,08,23,05,35,13.70
2014,08,23,05,36,13.70
2014,08,23,05,37,13.70
2014,08,23,05,38,13.70
2014,08,23,05,39,13.70
2014,08,23,05,40,13.70
2014,08,23,05,41,13.70
2014,08,23,05,42,13.70
2014,08,23,05,43,13.70
2014,08,23,05,44,13.70
2014,08,23,05,45,13.70
2014,08,23,05,46,13.70
2014,08,23,05,47,13.70
2014,08,23,05,48,13.70
2014,08,23,05,49,13.70
2014,08,23,05,50,13.70
2014,08,23,05,51,13.70
2014,08,23,05,52,13.70
2014,08,23,05,53,13.70
2014,08,23,05,54,13.70
2014,08,23,05,55,13.70
2014,08,23,05,56,13.60
2014,08,23,05,57,13.60
2014,08,23,05,58,13.50
2014,08,23,05,59,13.50
2014,08,23,06,00,13.40
2014,08,23,06,01,13.40
2014,08,23,06,02,13.30
2014,08,23,06,03,13.30
2014,08,23,06,04,13.20
2014,08,23,06,05,13.20
2014,08,23,06,06,13.20
2014,08,23,06,07,13.10
2014,08,23,06,08,13.00
2014,08,23,06,09,13.00
2014,08,23,06,10,12.90
2014,08,23,06,11,12.90
2014,08,23,06,12,12.80
2014,08,23,06,13,12.80
2014,08,23,06,14,12.80
2014,08,23,06,15,12.70
2014,08,23,06,16,12.70
2014,08,23,06,17,12.70
2014,08,23,06,18,12.70
2014,08,23,06,19,12.70
2014,08,23,06,20,12.70
2014,08,23,06,21,12.70
2014,08,23,06,22,12.70
2014,08,23,06,23,12.70
2014,08,23,06,24,12.70
2014,08,23,06,25,12.70
2014,08,23,06,26,12.70
2014,08,23,06,27,12.70
2014,08,23,06,28,12.70
2014,08,23,06,29,12.70
2014,08,23,06,30,12.70
2014,08,23,06,31,12.70
2014,08,23,06,32,12.70
2014,08,23,06,33,12.60
2014,08,23,06,34,12.60
2014,08,23,06,35,12.50
2014,08,23,06,36,12.40
2014,08,23,06,37,12.40
2014,08,23,06,38,12.40
2014,08,23,06,39,12.40
2014,08,23,06,40,12.40
2014,08,23,06,41,12.40
2014,08,23,06,42,12.50
2014,08,23,06,43,12.50
2014,08,23,06,44,12.50
2014,08,23,06,45,12.60
2014,08,23,06,46,12.60
2014,08,23,06,47,12.70
2014,08,23,06,48,12.70
2014,08,23,06,49,12.80
2014,08,23,06,50,12.90
2014,08,23,06,51,13.00
2014,08,23,06,52,13.10
2014,08,23,06,53,13.10
2014,08,23,06,54,13.20
2014,08,23,06,55,13.20
2014,08,23,06,56,13.30
2014,08,23,06,57,13.40
2014,08,23,06,58,13.40
2014,08,23,06,59,13.40
2014,08,23,07,00,13.50
2014,08,23,07,01,13.60
2014,08,23,07,02,13.60
2014,08,23,07,03,13.70
2014,08,23,07,04,13.70
2014,08,23,07,05,13.70
2014,08,23,07,06,13.80
2014,08,23,07,07,13.80
2014,08,23,07,08,13.80
2014,08,23,07,09,13.90
2014,08,23,07,10,13.90
2014,08,23,07,11,14.00
2014,08,23,07,12,14.00
2014,08,23,07,13,14.10
2014,08,23,07,14,14.10
2014,08,23,07,15,14.20
2014,08,23,07,16,14.20
2014,08,23,07,17,14.30
2014,08,23,07,18,14.30
2014,08,23,07,19,14.40
2014,08,23,07,20,14.40
2014,08,23,07,21,14.40
2014,08,23,07,22,14.50
2014,08,23,07,23,14.50
2014,08,23,07,24,14.60
2014,08,23,07,25,14.60
2014,08,23,07,26,14.70
2014,08,23,07,27,14.70
2014,08,23,07,28,14.70
2014,08,23,07,29,14.80
2014,08,23,07,30,14.80
2014,08,23,07,31,14.90
2014,08,23,07,32,14.90
2014,08,23,07,33,15.00
2014,08,23,07,34,15.00
2014,08,23,07,35,15.10
2014,08,23,07,36,15.10
2014,08,23,07,37,15.20
2014,08,23,07,38,15.30
2014,08,23,07,39,15.30
2014,08,23,07,40,15.40
2014,08,23,07,41,15.40
2014,08,23,07,42,15.50
2014,08,23,07,43,15.60
2014,08,23,07,44,15.60
2014,08,23,07,45,15.70
2014,08,23,07,46,15.80
2014,08,23,07,47,15.80
2014,08,23,07,48,15.90
2014,08,23,07,49,15.90
2014,08,23,07,50,16.00
2014,08,23,07,51,16.10
2014,08,23,07,52,16.10
2014,08,23,07,53,16.20
2014,08,23,07,54,16.20
2014,08,23,07,55,16.30
2014,08,23,07,56,16.30
2014,08,23,07,57,16.40
2014,08,23,07,58,16.40
2014,08,23,07,59,16.40
2014,08,23,08,00,16.50
2014,08,23,08,01,16.50
2014,08,23,08,02,16.60
2014,08,23,08,03,16.60
2014,08,23,08,04,16.60
2014,08,23,08,05,16.70
2014,08,23,08,06,16.70
2014,08,23,08,07,16.70
2014,08,23,08,08,16.70
2014,08,23,08,09,16.70
2014,08,23,08,10,16.80
2014,08,23,08,11,16.80
2014,08,23,08,12,16.80
2014,08,23,08,13,16.80
2014,08,23,08,14,16.80
2014,08,23,08,15,16.80
2014,08,23,08,16,16.80
2014,08,23,08,17,16.80
2014,08,23,08,18,16.80
2014,08,23,08,19,16.80
2014,08,23,08,20,16.80
2014,08,23,08,21,16.90
2014,08,23,08,22,16.90
2014,08,23,08,23,16.90
2014,08,23,08,24,16.90
2014,08,23,08,25,16.90
2014,08,23,08,26,16.80
2014,08,23,08,27,16.80
2014,08,23,08,28,16.80
2014,08,23,08,29,16.90
2014,08,23,08,30,16.90
2014,08,23,08,31,16.90
2014,08,23,08,32,16.90
2014,08,23,08,33,16.90
2014,08,23,08,34,16.90
2014,08,23,08,35,16.90
2014,08,23,08,36,16.90
2014,08,23,08,37,16.90
2014,08,23,08,38,16.90
2014,08,23,08,39,16.90
2014,08,23,08,40,16.90
2014,08,23,08,41,16.90
2014,08,23,08,42,16.90
2014,08,23,08,43,17.00
2014,08,23,08,44,17.00
2014,08,23,08,45,17.00
2014,08,23,08,46,17.00
2014,08,23,08,47,17.00
2014,08,23,08,48,17.00
2014,08,23,08,49,17.00
2014,08,23,08,50,16.90
2014,08,23,08,51,16.90
2014,08,23,08,52,16.90
2014,08,23,08,53,16.90
2014,08,23,08,54,16.90
2014,08,23,08,55,16.80
2014,08,23,08,56,16.80
2014,08,23,08,57,16.70
2014,08,23,08,58,16.70
2014,08,23,08,59,16.70
2014,08,23,09,00,16.70
2014,08,23,09,01,16.70
2014,08,23,09,02,16.60
2014,08,23,09,03,16.60
2014,08,23,09,04,16.60
2014,08,23,09,05,16.50
2014,08,23,09,06,16.50
2014,08,23,09,07,16.50
2014,08,23,09,08,16.50
2014,08,23,09,09,16.50
2014,08,23,09,10,16.50
2014,08,23,09,11,16.60
2014,08,23,09,12,16.60
2014,08,23,09,13,16.60
2014,08,23,09,14,16.70
2014,08,23,09,15,16.70
2014,08,23,09,16,16.80
2014,08,23,09,17,16.80
2014,08,23,09,18,16.80
2014,08,23,09,19,16.80
2014,08,23,09,20,16.80
2014,08,23,09,21,16.80
2014,08,23,09,22,16.80
2014,08,23,09,23,16.80
2014,08,23,09,24,16.90
2014,08,23,09,25,16.90
2014,08,23,09,26,17.00
2014,08,23,09,27,17.00
2014,08,23,09,28,17.10
2014,08,23,09,29,17.20
2014,08,23,09,30,17.20
2014,08,23,09,31,17.20
2014,08,23,09,32,17.20
2014,08,23,09,33,17.20
2014,08,23,09,34,17.20
2014,08,23,09,35,17.20
2014,08,23,09,36,17.20
2014,08,23,09,37,17.20
2014,08,23,09,38,17.10
2014,08,23,09,39,17.10
2014,08,23,09,40,17.00
2014,08,23,09,41,17.00
2014,08,23,09,42,16.90
2014,08,23,09,43,16.90
2014,08,23,09,44,16.80
2014,08,23,09,45,16.70
2014,08,23,09,46,16.70
2014,08,23,09,47,16.60
2014,08,23,09,48,16.50
2014,08,23,09,49,16.40
2014,08,23,09,50,16.40
2014,08,23,09,51,16.40
2014,08,23,09,52,16.40
2014,08,23,09,53,16.50
2014,08,23,09,54,16.50
2014,08,23,09,55,16.50
2014,08,23,09,56,16.50
2014,08,23,09,57,16.60
2014,08,23,09,58,16.60
2014,08,23,09,59,16.60
2014,08,23,10,00,16.60
2014,08,23,10,01,16.70
2014,08,23,10,02,16.70
2014,08,23,10,03,16.70
2014,08,23,10,04,16.70
2014,08,23,10,05,16.70
2014,08,23,10,06,16.80
2014,08,23,10,07,16.80
2014,08,23,10,08,16.80
2014,08,23,10,09,16.90
2014,08,23,10,10,16.90
2014,08,23,10,11,17.00
2014,08,23,10,12,17.00
2014,08,23,10,13,17.10
2014,08,23,10,14,17.20
2014,08,23,10,15,17.30
2014,08,23,10,16,17.40
2014,08,23,10,17,17.50
2014,08,23,10,18,17.60
2014,08,23,10,19,17.70
2014,08,23,10,20,17.90
2014,08,23,10,21,17.90
2014,08,23,10,22,18.10
2014,08,23,10,23,18.10
2014,08,23,10,24,18.10
2014,08,23,10,25,18.10
2014,08,23,10,26,18.10
2014,08,23,10,27,18.10
2014,08,23,10,28,18.20
2014,08,23,10,29,18.20
2014,08,23,10,30,18.20
2014,08,23,10,31,18.20
2014,08,23,10,32,18.20
2014,08,23,10,33,18.20
2014,08,23,10,34,18.20
2014,08,23,10,35,18.20
2014,08,23,10,36,18.30
2014,08,23,10,37,18.30
2014,08,23,10,38,18.30
2014,08,23,10,39,18.30
2014,08,23,10,40,18.30
2014,08,23,10,41,18.40
2014,08,23,10,42,18.40
2014,08,23,10,43,18.40
2014,08,23,10,44,18.40
2014,08,23,10,45,18.40
2014,08,23,10,46,18.50
2014,08,23,10,47,18.50
2014,08,23,10,48,18.50
2014,08,23,10,49,18.60
2014,08,23,10,50,18.60
2014,08,23,10,51,18.70
2014,08,23,10,52,18.70
2014,08,23,10,53,18.80
2014,08,23,10,54,18.80
2014,08,23,10,55,18.80
2014,08,23,10,56,18.90
2014,08,23,10,57,18.90
2014,08,23,10,58,18.90
2014,08,23,10,59,18.90
2014,08,23,11,00,18.90
2014,08,23,11,01,18.90
2014,08,23,11,02,18.90
2014,08,23,11,03,19.00
2014,08,23,11,04,19.00
2014,08,23,11,05,19.00
2014,08,23,11,06,19.00
2014,08,23,11,07,19.10
2014,08,23,11,08,19.10
2014,08,23,11,09,19.10
2014,08,23,11,10,19.10
2014,08,23,11,11,19.20
2014,08,23,11,12,19.20
2014,08,23,11,13,19.20
2014,08,23,11,14,19.20
2014,08,23,11,15,19.20
2014,08,23,11,16,19.20
2014,08,23,11,17,19.20
2014,08,23,11,18,19.20
2014,08,23,11,19,19.20
2014,08,23,11,20,19.30
2014,08,23,11,21,19.30
2014,08,23,11,22,19.40
2014,08,23,11,23,19.40
2014,08,23,11,24,19.40
2014,08,23,11,25,19.50
2014,08,23,11,26,19.50
2014,08,23,11,27,19.50
2014,08,23,11,28,19.60
2014,08,23,11,29,19.60
2014,08,23,11,30,19.60
2014,08,23,11,31,19.70
2014,08,23,11,32,19.70
2014,08,23,11,33,19.80
2014,08,23,11,34,19.90
2014,08,23,11,35,20.00
2014,08,23,11,36,20.00
2014,08,23,11,37,20.00
2014,08,23,11,38,20.10
2014,08,23,11,39,20.10
2014,08,23,11,40,20.10
2014,08,23,11,41,20.20
2014,08,23,11,42,20.10
2014,08,23,11,43,20.10
2014,08,23,11,44,20.10
2014,08,23,11,45,20.10
2014,08,23,11,46,20.10
2014,08,23,11,47,20.10
2014,08,23,11,48,20.00
2014,08,23,11,49,20.00
2014,08,23,11,50,19.90
2014,08,23,11,51,19.90
2014,08,23,11,52,20.00
2014,08,23,11,53,20.00
2014,08,23,11,54,20.00
2014,08,23,11,55,20.10
2014,08,23,11,56,20.00
2014,08,23,11,57,20.00
2014,08,23,11,58,20.00
2014,08,23,11,59,20.10
2014,08,23,12,00,20.10
2014,08,23,12,01,20.10
2014,08,23,12,02,20.20
2014,08,23,12,03,20.20
2014,08,23,12,04,20.20
2014,08,23,12,05,20.20
2014,08,23,12,06,20.20
2014,08,23,12,07,20.30
2014,08,23,12,08,20.30
2014,08,23,12,09,20.30
2014,08,23,12,10,20.30
2014,08,23,12,11,20.30
2014,08,23,12,12,20.30
2014,08,23,12,13,20.30
2014,08,23,12,14,20.30
2014,08,23,12,15,20.30
2014,08,23,12,16,20.30
2014,08,23,12,17,20.40
2014,08,23,12,18,20.40
2014,08,23,12,19,20.50
2014,08,23,12,20,20.50
2014,08,23,12,21,20.60
2014,08,23,12,22,20.60
2014,08,23,12,23,20.60
2014,08,23,12,24,20.60
2014,08,23,12,25,20.60
2014,08,23,12,26,20.60
2014,08,23,12,27,20.70
2014,08,23,12,28,20.70
2014,08,23,12,29,20.70
2014,08,23,12,30,20.70
2014,08,23,12,31,20.70
2014,08,23,12,32,20.70
2014,08,23,12,33,20.70
2014,08,23,12,34,20.60
2014,08,23,12,35,20.60
2014,08,23,12,36,20.60
2014,08,23,12,37,20.60
2014,08,23,12,38,20.60
2014,08,23,12,39,20.60
2014,08,23,12,40,20.50
2014,08,23,12,41,20.50
2014,08,23,12,42,20.50
2014,08,23,12,43,20.60
2014,08,23,12,44,20.60
2014,08,23,12,45,20.50
2014,08,23,12,46,20.50
2014,08,23,12,47,20.50
2014,08,23,12,48,20.40
2014,08,23,12,49,20.40
2014,08,23,12,50,20.40
2014,08,23,12,51,20.40
2014,08,23,12,52,20.30
2014,08,23,12,53,20.40
2014,08,23,12,54,20.50
2014,08,23,12,55,20.60
2014,08,23,12,56,20.60
2014,08,23,12,57,20.70
2014,08,23,12,58,20.70
2014,08,23,12,59,20.70
2014,08,23,13,00,20.70
2014,08,23,13,01,20.70
2014,08,23,13,02,20.70
2014,08,23,13,03,20.70
2014,08,23,13,04,20.70
2014,08,23,13,05,20.70
2014,08,23,13,06,20.80
2014,08,23,13,07,20.80
2014,08,23,13,08,20.90
2014,08,23,13,09,20.90
2014,08,23,13,10,21.00
2014,08,23,13,11,21.00
2014,08,23,13,12,21.10
2014,08,23,13,13,21.10
2014,08,23,13,14,21.10
2014,08,23,13,15,21.10
2014,08,23,13,16,21.10
2014,08,23,13,17,21.10
2014,08,23,13,18,21.10
2014,08,23,13,19,21.10
2014,08,23,13,20,21.10
2014,08,23,13,21,21.20
2014,08,23,13,22,21.20
2014,08,23,13,23,21.10
2014,08,23,13,24,21.10
2014,08,23,13,25,21.10
2014,08,23,13,26,21.20
2014,08,23,13,27,21.20
2014,08,23,13,28,21.20
2014,08,23,13,29,21.20
2014,08,23,13,30,21.10
2014,08,23,13,31,21.10
2014,08,23,13,32,21.10
2014,08,23,13,33,21.20
2014,08,23,13,34,21.20
2014,08,23,13,35,21.20
2014,08,23,13,36,21.10
2014,08,23,13,37,21.10
2014,08,23,13,38,21.10
2014,08,23,13,39,21.10
2014,08,23,13,40,21.10
2014,08,23,13,41,21.10
2014,08,23,13,42,21.10
2014,08,23,13,43,21.20
2014,08,23,13,44,21.20
2014,08,23,13,45,21.20
2014,08,23,13,46,21.30
2014,08,23,13,47,21.30
2014,08,23,13,48,21.30
2014,08,23,13,49,21.30
2014,08,23,13,50,21.30
2014,08,23,13,51,21.20
2014,08,23,13,52,21.20
2014,08,23,13,53,21.20
2014,08,23,13,54,21.20
2014,08,23,13,55,21.20
2014,08,23,13,56,21.20
2014,08,23,13,57,21.20
2014,08,23,13,58,21.10
2014,08,23,13,59,21.10
2014,08,23,14,00,21.10
2014,08,23,14,01,21.10
2014,08,23,14,02,21.10
2014,08,23,14,03,21.10
2014,08,23,14,04,21.10
2014,08,23,14,05,21.10
2014,08,23,14,06,21.10
2014,08,23,14,07,21.10
2014,08,23,14,08,21.20
2014,08,23,14,09,21.30
2014,08,23,14,10,21.30
2014,08,23,14,11,21.40
2014,08,23,14,12,21.50
2014,08,23,14,13,21.60
2014,08,23,14,14,21.80
2014,08,23,14,15,21.90
2014,08,23,14,16,22.00
2014,08,23,14,17,22.00
2014,08,23,14,18,22.10
2014,08,23,14,19,22.10
2014,08,23,14,20,22.10
2014,08,23,14,21,22.10
2014,08,23,14,22,22.20
2014,08,23,14,23,22.20
2014,08,23,14,24,22.20
2014,08,23,14,25,22.30
2014,08,23,14,26,22.20
2014,08,23,14,27,22.20
2014,08,23,14,28,22.20
2014,08,23,14,29,22.30
2014,08,23,14,30,22.30
2014,08,23,14,31,22.30
2014,08,23,14,32,22.20
2014,08,23,14,33,22.20
2014,08,23,14,34,22.20
2014,08,23,14,35,22.20
2014,08,23,14,36,22.20
2014,08,23,14,37,22.20
2014,08,23,14,38,22.20
2014,08,23,14,39,22.20
2014,08,23,14,40,22.20
2014,08,23,14,41,22.20
2014,08,23,14,42,22.20
2014,08,23,14,43,22.20
2014,08,23,14,44,22.20
2014,08,23,14,45,22.30
2014,08,23,14,46,22.30
2014,08,23,14,47,22.30
2014,08,23,14,48,22.30
2014,08,23,14,49,22.40
2014,08,23,14,50,22.40
2014,08,23,14,51,22.50
2014,08,23,14,52,22.60
2014,08,23,14,53,22.60
2014,08,23,14,54,22.60
2014,08,23,14,55,22.60
2014,08,23,14,56,22.60
2014,08,23,14,57,22.50
2014,08,23,14,58,22.40
2014,08,23,14,59,22.40
2014,08,23,15,00,22.30
2014,08,23,15,01,22.30
2014,08,23,15,02,22.30
2014,08,23,15,03,22.30
2014,08,23,15,04,22.30
2014,08,23,15,05,22.20
2014,08,23,15,06,22.20
2014,08,23,15,07,22.20
2014,08,23,15,08,22.10
2014,08,23,15,09,22.10
2014,08,23,15,10,22.10
2014,08,23,15,11,22.10
2014,08,23,15,12,22.10
2014,08,23,15,13,22.10
2014,08,23,15,14,22.10
2014,08,23,15,15,22.10
2014,08,23,15,16,22.10
2014,08,23,15,17,22.10
2014,08,23,15,18,22.10
2014,08,23,15,19,22.10
2014,08,23,15,20,22.10
2014,08,23,15,21,22.00
2014,08,23,15,22,22.00
2014,08,23,15,23,22.00
2014,08,23,15,24,21.90
2014,08,23,15,25,21.90
2014,08,23,15,26,21.90
2014,08,23,15,27,21.80
2014,08,23,15,28,21.80
2014,08,23,15,29,21.80
2014,08,23,15,30,21.80
2014,08,23,15,31,21.80
2014,08,23,15,32,21.80
2014,08,23,15,33,21.90
2014,08,23,15,34,21.90
2014,08,23,15,35,21.90
2014,08,23,15,36,21.90
2014,08,23,15,37,22.00
2014,08,23,15,38,22.00
2014,08,23,15,39,22.00
2014,08,23,15,40,22.10
2014,08,23,15,41,22.10
2014,08,23,15,42,22.10
2014,08,23,15,43,22.10
2014,08,23,15,44,22.20
2014,08,23,15,45,22.20
2014,08,23,15,46,22.20
2014,08,23,15,47,22.30
2014,08,23,15,48,22.30
2014,08,23,15,49,22.40
2014,08,23,15,50,22.40
2014,08,23,15,51,22.40
2014,08,23,15,52,22.50
2014,08,23,15,53,22.50
2014,08,23,15,54,22.50
2014,08,23,15,55,22.60
2014,08,23,15,56,22.50
2014,08,23,15,57,22.50
2014,08,23,15,58,22.60
2014,08,23,15,59,22.60
2014,08,23,16,00,22.60
2014,08,23,16,01,22.60
2014,08,23,16,02,22.60
2014,08,23,16,03,22.60
2014,08,23,16,04,22.50
2014,08,23,16,05,22.50
2014,08,23,16,06,22.40
2014,08,23,16,07,22.40
2014,08,23,16,08,22.40
2014,08,23,16,09,22.30
2014,08,23,16,10,22.30
2014,08,23,16,11,22.30
2014,08,23,16,12,22.30
2014,08,23,16,13,22.30
2014,08,23,16,14,22.30
2014,08,23,16,15,22.30
2014,08,23,16,16,22.30
2014,08,23,16,17,22.30
2014,08,23,16,18,22.30
2014,08,23,16,19,22.30
2014,08,23,16,20,22.20
2014,08,23,16,21,22.10
2014,08,23,16,22,22.10
2014,08,23,16,23,22.10
2014,08,23,16,24,22.10
2014,08,23,16,25,22.10
2014,08,23,16,26,22.10
2014,08,23,16,27,22.10
2014,08,23,16,28,22.10
2014,08,23,16,29,22.20
2014,08,23,16,30,22.20
2014,08,23,16,31,22.10
2014,08,23,16,32,22.10
2014,08,23,16,33,22.10
2014,08,23,16,34,22.00
2014,08,23,16,35,21.90
2014,08,23,16,36,21.90
2014,08,23,16,37,21.80
2014,08,23,16,38,21.80
2014,08,23,16,39,21.80
2014,08,23,16,40,21.80
2014,08,23,16,41,21.80
2014,08,23,16,42,21.80
2014,08,23,16,43,21.90
2014,08,23,16,44,21.90
2014,08,23,16,45,21.90
2014,08,23,16,46,21.90
2014,08,23,16,47,21.90
2014,08,23,16,48,21.90
2014,08,23,16,49,21.90
2014,08,23,16,50,21.90
2014,08,23,16,51,21.90
2014,08,23,16,52,22.00
2014,08,23,16,53,22.00
2014,08,23,16,54,22.10
2014,08,23,16,55,22.10
2014,08,23,16,56,22.10
2014,08,23,16,57,22.10
2014,08,23,16,58,22.10
2014,08,23,16,59,22.10
2014,08,23,17,00,22.10
2014,08,23,17,01,22.10
2014,08,23,17,02,22.10
2014,08,23,17,03,22.20
2014,08,23,17,04,22.20
2014,08,23,17,05,22.30
2014,08,23,17,06,22.30
2014,08,23,17,07,22.30
2014,08,23,17,08,22.30
2014,08,23,17,09,22.30
2014,08,23,17,10,22.30
2014,08,23,17,11,22.30
2014,08,23,17,12,22.30
2014,08,23,17,13,22.30
2014,08,23,17,14,22.30
2014,08,23,17,15,22.40
2014,08,23,17,16,22.40
2014,08,23,17,17,22.40
2014,08,23,17,18,22.40
2014,08,23,17,19,22.40